Retour au catalogue

STARLINK-36462

ActifCommunicationsVLEO
NORAD 67321·PAYLOAD·🇺🇸 United States

Lancé Jan 4, 2026 depuis Cape Canaveral Space Force Station

Loading…

Prochains Passages (prochaines 24 heures)

TLE

FraisSource: CelesTrak SupGP

Époque: Sep 15, 2026, 03:54 UTC

1 67321C 26002S   26258.16298611  .00051226  00000+0  18558-2 0  2588
2 67321  43.0009 335.4765 0001602 254.4299  99.3375 15.27544959    12

Suivez STARLINK-36462 en temps réel avec AllMySat

Download on the App Store